This is the latest recevied weather packets stored in our database for station/object KJ6HT. If no packets are shown the sender has not sent any weather packets the latest 10 day(s).
| Time | Temp. | Humidity | Pressure | Rain* | Wind** | Luminosity | Snow |
|---|---|---|---|---|---|---|---|
| 1777454104 | 11.67° C | 80% | 1016.1 hPa | 0 mm | - | - | - |
| 1777453264 | 11.67° C | 80% | 1016.1 hPa | 0 mm | - | - | - |
| 1777452313 | 11.67° C | 82% | 1016.5 hPa | 0 mm | - | - | - |
| 1777451491 | 11.67° C | 80% | 1016.6 hPa | 0 mm | - | - | - |
| 1777450540 | 11.67° C | 80% | 1016.7 hPa | 0 mm | - | - | - |
| 1777449688 | 12.22° C | 82% | 1016.7 hPa | 0 mm | - | - | - |
| 1777448732 | 12.22° C | 79% | 1016.7 hPa | 0 mm | - | - | - |
| 1777447892 | 12.22° C | 80% | 1016.6 hPa | 0 mm | - | - | - |
| 1777446945 | 12.22° C | 78% | 1016.6 hPa | 0 mm | - | - | - |
| 1777446093 | 12.78° C | 75% | 1016.7 hPa | 0 mm | - | - | - |
| 1777445148 | 13.33° C | 74% | 1016.9 hPa | 0 mm | - | - | - |
| 1777444232 | 13.89° C | 71% | 1016.8 hPa | 0 mm | - | - | - |
| 1777443381 | 13.89° C | 70% | 1016.8 hPa | 0 mm | - | - | - |
| 1777442434 | 14.44° C | 68% | 1016.8 hPa | 0 mm | - | - | - |
| 1777441588 | 15° C | 66% | 1016.7 hPa | 0 mm | - | - | - |
| 1777440644 | 15° C | 64% | 1016.8 hPa | 0 mm | - | - | - |
| 1777439707 | 15.56° C | 62% | 1016.8 hPa | 0 mm | - | - | - |
| 1777438847 | 15.56° C | 61% | 1016.7 hPa | 0 mm | - | - | - |
| 1777437906 | 15.56° C | 59% | 1016.6 hPa | 0 mm | - | - | - |
| 1777437067 | 16.11° C | 57% | 1016.3 hPa | 0 mm | - | - | - |
| 1777436132 | 16.67° C | 56% | 1016.2 hPa | 0 mm | - | - | - |
| 1777435293 | 16.67° C | 54% | 1016 hPa | 0 mm | - | - | - |
| 1777434343 | 17.22° C | 53% | 1015.7 hPa | 0 mm | - | - | - |
| 1777433442 | 17.22° C | 52% | 1015.5 hPa | 0 mm | - | - | - |
| 1777432590 | 17.78° C | 51% | 1015.3 hPa | 0 mm | - | - | - |
* Rain latest hour (hover to see other rain measurements)
** Current wind speed in m/s (hover to see current wind gust speed)